{"data":{"norad_id":68027,"intl_designator":"2026-040N","name":"STARLINK-36940","alt_names":[],"object_type":"PAYLOAD","status":"ACTIVE","operator":null,"country":"US","launch_date":"2026-03-01","launch_site_code":"AFWTR","launch_vehicle":null,"mission":null,"orbit_class":"UNKNOWN","rcs_meters":null,"size_class":null,"mass_kg":null,"dimensions":null,"purposes":["comms"],"wikipedia_slug":null,"has_3d_model":false,"image_url":null,"decayed_at":null,"tle_current":{"epoch":"2026-05-25T03:16:15.748032Z","epoch_age_seconds":57143,"freshness":"FRESH","line1":"1 68027U 26040N   26145.13629338  .00017504  00000+0  54319-3 0  9999","line2":"2 68027  97.2843  94.2323 0001247  95.8581 264.2803 15.33448401 13182","mean_motion":15.33448401,"eccentricity":0.0001247,"inclination_deg":97.2843,"raan_deg":94.2323,"arg_perigee_deg":95.8581,"mean_anomaly_deg":264.2803,"bstar":0.00054319,"rev_number":1318,"period_min":93.90599638442,"perigee_km":464.67964985772,"apogee_km":466.38646116956,"semimajor_km":6843.6700555136,"source":"CELESTRAK","updated_at":"2026-05-25T13:38:21.806753Z"}}}